Location: Sternwarte auf dem Internationalen Platz Vogelsang IP
(50.5721°N, 6.4398°E)
Time: 05:09:17
(UTC+01:00)

Transit 2A Rocket - Pass Details

Date: 10 December 2025
Orbit: 581 x 903 km, 66.7° (Epoch: 13 January)

Event Time Altitude Azimuth Distance (km) Brightness Sun altitude
Rises 08:45:38 0° 175° (S) 3,270 9.1 1.8°
Reaches altitude 10° 08:48:20 10° 162° (SSE) 2,398 8.7 2.1°
Maximum altitude 08:52:49 25° 109° (ESE) 1,642 7.9 2.7°
Drops below altitude 10° 08:57:32 10° 56° (NE) 2,545 7.9 3.2°
Sets 09:00:28 0° 44° (NE) 3,514 8.4 3.5°
